Wetterdaten: Woche 30.04.18 - 06.05.18 (KW18)
Datum Zeit Temp. A. Pool Temp. Feuchte A. Luftdruck Regen Wind Richtung Sonnenschein ET UV Solar Taupunkt Windchill Windben Empfang
30.04.2018 00:00 20,2 C 19,4 C 42 % 1001,0 hPa 0,0 l/m 5,9 km/h (2 Bft) O-SO 0,00 h 0,000 mm 0,0 UV-I 0 W/m 6,9 C 20,0 C 8,7 km/h (2 Bft) 97,08 %
30.04.2018 01:00 19,8 C 19,4 C 44 % 1000,4 hPa 0,0 l/m 7,9 km/h (2 Bft) SO 0,00 h 0,051 mm 0,0 UV-I 0 W/m 7,2 C 19,0 C 11,7 km/h (2 Bft) 97,63 %
30.04.2018 02:00 19,8 C 19,4 C 44 % 999,5 hPa 0,0 l/m 7,1 km/h (2 Bft) SO 0,00 h 0,076 mm 0,0 UV-I 0 W/m 7,2 C 19,3 C 10,1 km/h (2 Bft) 99,23 %
30.04.2018 03:00 18,8 C 19,2 C 47 % 999,2 hPa 0,0 l/m 9,0 km/h (2 Bft) O-SO 0,00 h 0,076 mm 0,0 UV-I 0 W/m 7,2 C 17,7 C 11,9 km/h (2 Bft) 98,01 %
30.04.2018 04:00 18,7 C 18,9 C 47 % 998,9 hPa 0,0 l/m 9,8 km/h (2 Bft) O-SO 0,00 h 0,076 mm 0,0 UV-I 0 W/m 7,1 C 17,2 C 13,4 km/h (3 Bft) 97,25 %
30.04.2018 05:00 17,4 C 18,9 C 51 % 998,5 hPa 0,0 l/m 9,6 km/h (2 Bft) SO 0,02 h 0,077 mm 0,0 UV-I 10 W/m 7,2 C 16,0 C 13,1 km/h (3 Bft) 96,68 %
30.04.2018 06:00 17,4 C 18,9 C 51 % 998,6 hPa 0,0 l/m 11,8 km/h (2 Bft) SO 0,55 h 0,076 mm 0,0 UV-I 51 W/m 7,1 C 15,2 C 16,8 km/h (3 Bft) 98,96 %
30.04.2018 07:00 18,6 C 18,9 C 47 % 999,0 hPa 0,0 l/m 14,5 km/h (3 Bft) SO 0,00 h 0,101 mm 0,0 UV-I 93 W/m 7,2 C 15,9 C 20,6 km/h (4 Bft) 98,02 %
30.04.2018 08:00 20,1 C 18,9 C 46 % 999,3 hPa 0,0 l/m 14,9 km/h (3 Bft) S-SO 0,72 h 0,153 mm 0,8 UV-I 279 W/m 8,0 C 17,5 C 21,7 km/h (4 Bft) 97,86 %
30.04.2018 09:00 18,8 C 18,9 C 53 % 1002,2 hPa 0,0 l/m 25,3 km/h (4 Bft) W 0,83 h 0,279 mm 1,6 UV-I 490 W/m 8,9 C 13,8 C 38,0 km/h (5 Bft) 96,47 %
30.04.2018 10:00 17,0 C 18,9 C 55 % 1003,8 hPa 0,0 l/m 23,0 km/h (4 Bft) W 0,48 h 0,432 mm 1,8 UV-I 422 W/m 7,8 C 11,8 C 33,4 km/h (5 Bft) 98,99 %
30.04.2018 11:00 17,1 C 18,9 C 52 % 1004,3 hPa 0,0 l/m 17,1 km/h (3 Bft) W 0,77 h 0,381 mm 3,1 UV-I 669 W/m 7,1 C 13,2 C 25,8 km/h (4 Bft) 98,34 %
30.04.2018 12:00 17,6 C 19,1 C 50 % 1004,5 hPa 0,0 l/m 11,3 km/h (2 Bft) W 0,62 h 0,483 mm 3,4 UV-I 594 W/m 7,1 C 15,6 C 17,6 km/h (3 Bft) 98,10 %
30.04.2018 13:00 18,0 C 19,4 C 49 % 1004,3 hPa 0,0 l/m 11,7 km/h (2 Bft) W-SW 0,77 h 0,406 mm 3,7 UV-I 692 W/m 7,1 C 15,9 C 17,5 km/h (3 Bft) 95,51 %
30.04.2018 14:00 18,8 C 19,6 C 47 % 1004,0 hPa 0,0 l/m 7,6 km/h (2 Bft) W 1,00 h 0,483 mm 3,8 UV-I 774 W/m 7,4 C 18,0 C 11,8 km/h (2 Bft) 97,94 %
30.04.2018 15:00 19,6 C 20,0 C 47 % 1003,4 hPa 0,0 l/m 4,5 km/h (1 Bft) N 1,00 h 0,482 mm 2,9 UV-I 674 W/m 7,9 C 19,5 C 7,1 km/h (2 Bft) 98,55 %
30.04.2018 16:00 20,1 C 20,1 C 46 % 1003,0 hPa 0,0 l/m 3,7 km/h (1 Bft) W-NW 1,00 h 0,432 mm 1,9 UV-I 539 W/m 8,1 C 20,0 C 5,9 km/h (2 Bft) 97,93 %
30.04.2018 17:00 20,3 C 20,6 C 45 % 1002,7 hPa 0,0 l/m 3,6 km/h (1 Bft) W-NW 1,00 h 0,356 mm 1,0 UV-I 380 W/m 8,0 C 20,3 C 5,5 km/h (1 Bft) 99,10 %
30.04.2018 18:00 20,3 C 20,6 C 45 % 1002,5 hPa 0,0 l/m 4,9 km/h (1 Bft) W-SW 1,00 h 0,254 mm 0,5 UV-I 211 W/m 8,1 C 20,2 C 7,9 km/h (2 Bft) 96,92 %
30.04.2018 19:00 19,2 C 20,5 C 49 % 1002,9 hPa 0,0 l/m 5,2 km/h (1 Bft) W 0,58 h 0,177 mm 0,0 UV-I 64 W/m 8,1 C 19,1 C 8,1 km/h (2 Bft) 97,10 %
30.04.2018 20:00 17,0 C 20,0 C 52 % 1003,7 hPa 0,0 l/m 7,1 km/h (2 Bft) W 0,08 h 0,077 mm 0,0 UV-I 9 W/m 7,1 C 16,5 C 11,0 km/h (2 Bft) 97,35 %
30.04.2018 21:00 15,4 C 20,0 C 56 % 1004,6 hPa 0,0 l/m 6,6 km/h (2 Bft) W 0,00 h 0,050 mm 0,0 UV-I 0 W/m 6,7 C 14,9 C 9,5 km/h (2 Bft) 98,34 %
30.04.2018 22:00 14,0 C 20,0 C 62 % 1005,1 hPa 0,0 l/m 5,5 km/h (1 Bft) SW 0,00 h 0,051 mm 0,0 UV-I 0 W/m 6,8 C 13,8 C 7,5 km/h (2 Bft) 96,68 %
30.04.2018 23:00 12,6 C 19,7 C 69 % 1005,7 hPa 0,0 l/m 6,8 km/h (2 Bft) SW 0,00 h 0,026 mm 0,0 UV-I 0 W/m 7,0 C 12,2 C 8,5 km/h (2 Bft) 97,71 %
01.05.2018 00:00 12,1 C 19,4 C 72 % 1006,2 hPa 0,0 l/m 7,6 km/h (2 Bft) SW 0,00 h 0,000 mm 0,0 UV-I 0 W/m 7,2 C 11,3 C 10,2 km/h (2 Bft) 96,64 %
01.05.2018 01:00 11,6 C 19,4 C 76 % 1006,9 hPa 0,0 l/m 11,7 km/h (2 Bft) W-SW 0,00 h 0,025 mm 0,0 UV-I 0 W/m 7,6 C 8,6 C 15,9 km/h (3 Bft) 98,90 %
01.05.2018 02:00 11,0 C 19,2 C 78 % 1007,7 hPa 0,0 l/m 14,5 km/h (3 Bft) W-SW 0,00 h 0,026 mm 0,0 UV-I 0 W/m 7,3 C 6,6 C 19,5 km/h (3 Bft) 96,23 %
01.05.2018 03:00 11,0 C 18,9 C 78 % 1008,3 hPa 0,0 l/m 12,4 km/h (3 Bft) SW 0,00 h 0,025 mm 0,0 UV-I 0 W/m 7,3 C 7,5 C 17,1 km/h (3 Bft) 98,42 %
01.05.2018 04:00 11,0 C 18,9 C 78 % 1008,2 hPa 0,0 l/m 10,2 km/h (2 Bft) W-SW 0,00 h 0,026 mm 0,0 UV-I 0 W/m 7,3 C 8,7 C 14,1 km/h (3 Bft) 99,39 %
01.05.2018 05:00 9,9 C 18,9 C 80 % 1008,4 hPa 0,0 l/m 7,4 km/h (2 Bft) SW 0,03 h 0,025 mm 0,0 UV-I 7 W/m 6,7 C 9,1 C 10,1 km/h (2 Bft) 97,35 %
01.05.2018 06:00 9,9 C 18,5 C 79 % 1008,9 hPa 0,0 l/m 8,2 km/h (2 Bft) W-SW 0,43 h 0,025 mm 0,0 UV-I 62 W/m 6,4 C 8,6 C 11,6 km/h (2 Bft) 97,90 %
01.05.2018 07:00 11,7 C 18,3 C 74 % 1009,3 hPa 0,0 l/m 7,8 km/h (2 Bft) W-SW 0,98 h 0,051 mm 0,5 UV-I 235 W/m 7,2 C 10,8 C 11,9 km/h (2 Bft) 98,05 %
01.05.2018 08:00 13,5 C 18,3 C 67 % 1009,9 hPa 0,0 l/m 7,2 km/h (2 Bft) W-SW 0,65 h 0,127 mm 0,8 UV-I 304 W/m 7,4 C 12,8 C 10,7 km/h (2 Bft) 98,06 %
01.05.2018 09:00 15,1 C 18,6 C 56 % 1010,2 hPa 0,0 l/m 8,1 km/h (2 Bft) W-SW 0,92 h 0,178 mm 1,6 UV-I 497 W/m 6,4 C 13,8 C 12,3 km/h (3 Bft) 97,15 %
01.05.2018 10:00 16,4 C 18,9 C 52 % 1010,3 hPa 0,0 l/m 6,0 km/h (2 Bft) N 1,00 h 0,305 mm 2,6 UV-I 690 W/m 6,4 C 16,1 C 9,7 km/h (2 Bft) 98,50 %
01.05.2018 11:00 16,8 C 18,9 C 49 % 1010,3 hPa 0,0 l/m 5,8 km/h (2 Bft) W 1,00 h 0,406 mm 2,8 UV-I 629 W/m 6,1 C 16,5 C 9,0 km/h (2 Bft) 98,59 %
01.05.2018 12:00 17,2 C 18,9 C 50 % 1010,4 hPa 0,0 l/m 4,4 km/h (1 Bft) W 0,68 h 0,381 mm 2,4 UV-I 496 W/m 6,6 C 17,2 C 7,6 km/h (2 Bft) 96,24 %
01.05.2018 13:00 17,3 C 18,9 C 50 % 1010,4 hPa 0,0 l/m 4,3 km/h (1 Bft) W 0,52 h 0,305 mm 2,3 UV-I 466 W/m 6,8 C 17,3 C 6,9 km/h (2 Bft) 97,36 %
01.05.2018 14:00 17,7 C 19,4 C 49 % 1010,6 hPa 0,0 l/m 5,3 km/h (1 Bft) W 0,95 h 0,279 mm 2,3 UV-I 479 W/m 6,8 C 17,5 C 8,6 km/h (2 Bft) 98,27 %
01.05.2018 15:00 18,0 C 19,4 C 48 % 1010,4 hPa 0,0 l/m 6,7 km/h (2 Bft) W 1,00 h 0,305 mm 2,1 UV-I 492 W/m 6,9 C 17,5 C 10,8 km/h (2 Bft) 99,17 %
01.05.2018 16:00 17,6 C 19,4 C 49 % 1010,2 hPa 0,0 l/m 3,6 km/h (1 Bft) NW 0,13 h 0,330 mm 1,0 UV-I 279 W/m 6,9 C 17,6 C 6,2 km/h (2 Bft) 97,38 %
01.05.2018 17:00 17,1 C 19,4 C 52 % 1010,0 hPa 0,0 l/m 2,9 km/h (1 Bft) W 0,00 h 0,178 mm 0,6 UV-I 168 W/m 7,2 C 17,1 C 4,9 km/h (1 Bft) 96,63 %
01.05.2018 18:00 16,2 C 19,4 C 55 % 1009,9 hPa 0,0 l/m 1,8 km/h (1 Bft) O-NO 0,00 h 0,127 mm 0,0 UV-I 69 W/m 7,1 C 16,2 C 3,4 km/h (1 Bft) 96,58 %
01.05.2018 19:00 15,8 C 19,3 C 54 % 1010,0 hPa 0,0 l/m 2,9 km/h (1 Bft) W 0,48 h 0,051 mm 0,0 UV-I 52 W/m 6,5 C 15,8 C 4,5 km/h (1 Bft) 99,00 %
01.05.2018 20:00 14,7 C 18,9 C 58 % 1010,3 hPa 0,0 l/m 2,3 km/h (1 Bft) W 0,10 h 0,051 mm 0,0 UV-I 11 W/m 6,6 C 14,7 C 3,5 km/h (1 Bft) 97,65 %
01.05.2018 21:00 12,8 C 18,9 C 68 % 1010,7 hPa 0,0 l/m 3,1 km/h (1 Bft) SW 0,00 h 0,025 mm 0,0 UV-I 0 W/m 7,1 C 12,8 C 4,3 km/h (1 Bft) 96,91 %
01.05.2018 22:00 13,0 C 18,9 C 67 % 1010,8 hPa 0,0 l/m 4,4 km/h (1 Bft) S-SW 0,00 h 0,026 mm 0,0 UV-I 0 W/m 7,0 C 13,0 C 5,9 km/h (2 Bft) 97,55 %
01.05.2018 23:00 11,8 C 18,9 C 71 % 1010,9 hPa 0,0 l/m 5,5 km/h (1 Bft) S-SW 0,00 h 0,025 mm 0,0 UV-I 0 W/m 6,8 C 11,8 C 7,2 km/h (2 Bft) 99,25 %
02.05.2018 00:00 10,9 C 18,9 C 74 % 1011,1 hPa 0,0 l/m 5,2 km/h (1 Bft) S-SW 0,00 h 0,000 mm 0,0 UV-I 0 W/m 6,5 C 10,9 C 6,8 km/h (2 Bft) 97,64 %
02.05.2018 01:00 10,3 C 18,5 C 77 % 1011,0 hPa 0,0 l/m 4,7 km/h (1 Bft) S-SW 0,00 h 0,025 mm 0,0 UV-I 0 W/m 6,4 C 10,3 C 6,4 km/h (2 Bft) 96,38 %
02.05.2018 02:00 10,3 C 18,3 C 77 % 1010,6 hPa 0,0 l/m 4,4 km/h (1 Bft) S-SW 0,00 h 0,026 mm 0,0 UV-I 0 W/m 6,5 C 10,3 C 5,8 km/h (2 Bft) 98,78 %
02.05.2018 03:00 9,8 C 18,3 C 80 % 1010,4 hPa 0,0 l/m 4,0 km/h (1 Bft) SW 0,00 h 0,025 mm 0,0 UV-I 0 W/m 6,5 C 9,8 C 5,2 km/h (1 Bft) 98,72 %
02.05.2018 04:00 9,0 C 18,3 C 83 % 1010,2 hPa 0,0 l/m 3,2 km/h (1 Bft) SW 0,00 h 0,000 mm 0,0 UV-I 0 W/m 6,3 C 9,0 C 4,4 km/h (1 Bft) 96,69 %
02.05.2018 05:00 9,0 C 18,2 C 84 % 1010,0 hPa 0,0 l/m 2,5 km/h (1 Bft) SW 0,08 h 0,000 mm 0,0 UV-I 11 W/m 6,4 C 9,0 C 3,5 km/h (1 Bft) 98,05 %
02.05.2018 06:00 9,4 C 17,8 C 84 % 1010,1 hPa 0,0 l/m 1,4 km/h (1 Bft) S-SW 0,67 h 0,000 mm 0,0 UV-I 71 W/m 6,8 C 9,4 C 2,5 km/h (1 Bft) 98,83 %
02.05.2018 07:00 11,4 C 17,8 C 77 % 1010,2 hPa 0,0 l/m 5,3 km/h (1 Bft) O-NO 0,95 h 0,026 mm 0,5 UV-I 243 W/m 7,5 C 10,8 C 7,5 km/h (2 Bft) 96,44 %
02.05.2018 08:00 12,6 C 17,8 C 72 % 1010,1 hPa 0,0 l/m 10,1 km/h (2 Bft) O-NO 0,95 h 0,127 mm 0,7 UV-I 294 W/m 7,7 C 10,5 C 13,9 km/h (3 Bft) 97,91 %
02.05.2018 09:00 13,2 C 17,8 C 71 % 1009,7 hPa 0,0 l/m 9,4 km/h (2 Bft) O-NO 0,18 h 0,177 mm 0,8 UV-I 245 W/m 8,1 C 11,5 C 13,4 km/h (3 Bft) 97,83 %
02.05.2018 10:00 13,3 C 17,8 C 73 % 1009,4 hPa 0,0 l/m 6,3 km/h (2 Bft) O 0,00 h 0,153 mm 0,7 UV-I 180 W/m 8,5 C 12,6 C 8,9 km/h (2 Bft) 98,13 %
02.05.2018 11:00 15,2 C 17,8 C 72 % 1008,9 hPa 0,0 l/m 6,9 km/h (2 Bft) O-NO 0,42 h 0,101 mm 1,8 UV-I 406 W/m 10,2 C 14,7 C 9,9 km/h (2 Bft) 96,98 %
02.05.2018 12:00 17,6 C 18,1 C 68 % 1008,2 hPa 0,0 l/m 6,0 km/h (2 Bft) N 0,15 h 0,229 mm 2,2 UV-I 428 W/m 11,6 C 17,3 C 8,4 km/h (2 Bft) 96,38 %
02.05.2018 13:00 20,2 C 18,3 C 62 % 1007,4 hPa 0,0 l/m 11,3 km/h (2 Bft) NO 0,62 h 0,254 mm 2,8 UV-I 504 W/m 12,7 C 18,7 C 15,6 km/h (3 Bft) 99,30 %
02.05.2018 14:00 22,5 C 18,3 C 54 % 1006,7 hPa 0,0 l/m 17,6 km/h (3 Bft) O 0,75 h 0,356 mm 3,0 UV-I 584 W/m 12,6 C 19,8 C 23,5 km/h (4 Bft) 97,33 %
02.05.2018 15:00 23,8 C 18,8 C 51 % 1005,9 hPa 0,0 l/m 21,0 km/h (4 Bft) O-NO 0,87 h 0,482 mm 2,4 UV-I 567 W/m 12,9 C 21,0 C 28,3 km/h (4 Bft) 99,16 %
02.05.2018 16:00 23,7 C 18,9 C 52 % 1005,2 hPa 0,0 l/m 18,5 km/h (3 Bft) O-NO 0,38 h 0,508 mm 1,2 UV-I 326 W/m 13,1 C 21,2 C 24,3 km/h (4 Bft) 95,80 %
02.05.2018 17:00 22,9 C 18,9 C 54 % 1004,9 hPa 0,0 l/m 15,0 km/h (3 Bft) O-NO 0,00 h 0,330 mm 0,6 UV-I 154 W/m 13,1 C 20,8 C 19,8 km/h (3 Bft) 98,20 %
02.05.2018 18:00 23,1 C 18,9 C 55 % 1004,6 hPa 0,0 l/m 12,8 km/h (3 Bft) O-NO 0,73 h 0,204 mm 0,5 UV-I 188 W/m 13,7 C 21,5 C 17,5 km/h (3 Bft) 97,86 %
02.05.2018 19:00 21,9 C 18,9 C 62 % 1004,5 hPa 0,0 l/m 9,9 km/h (2 Bft) O 0,00 h 0,203 mm 0,0 UV-I 47 W/m 14,2 C 20,8 C 13,4 km/h (3 Bft) 99,20 %
02.05.2018 20:00 20,4 C 18,9 C 67 % 1004,7 hPa 0,0 l/m 8,9 km/h (2 Bft) O-SO 0,03 h 0,076 mm 0,0 UV-I 7 W/m 14,1 C 19,4 C 12,4 km/h (3 Bft) 96,22 %
02.05.2018 21:00 19,1 C 18,9 C 71 % 1005,1 hPa 0,0 l/m 6,0 km/h (2 Bft) SO 0,00 h 0,051 mm 0,0 UV-I 0 W/m 13,7 C 18,9 C 7,8 km/h (2 Bft) 97,73 %
02.05.2018 22:00 16,8 C 18,4 C 79 % 1005,0 hPa 0,0 l/m 5,1 km/h (1 Bft) O-NO 0,00 h 0,025 mm 0,0 UV-I 0 W/m 13,1 C 16,6 C 7,0 km/h (2 Bft) 97,74 %
02.05.2018 23:00 17,0 C 18,3 C 77 % 1005,5 hPa 0,0 l/m 10,0 km/h (2 Bft) O 0,00 h 0,026 mm 0,0 UV-I 0 W/m 12,9 C 15,4 C 13,6 km/h (3 Bft) 98,68 %
03.05.2018 00:00 16,9 C 18,3 C 78 % 1006,0 hPa 0,0 l/m 9,2 km/h (2 Bft) O 0,00 h 0,000 mm 0,0 UV-I 0 W/m 13,1 C 15,6 C 12,9 km/h (3 Bft) 95,03 %
03.05.2018 01:00 15,3 C 18,3 C 83 % 1006,3 hPa 0,0 l/m 3,8 km/h (1 Bft) O-SO 0,00 h 0,025 mm 0,0 UV-I 0 W/m 12,4 C 15,2 C 5,2 km/h (1 Bft) 97,60 %
03.05.2018 02:00 15,0 C 18,3 C 83 % 1005,9 hPa 0,0 l/m 6,3 km/h (2 Bft) SW 0,00 h 0,026 mm 0,0 UV-I 0 W/m 12,0 C 14,6 C 9,0 km/h (2 Bft) 97,71 %
03.05.2018 03:00 14,2 C 18,3 C 82 % 1006,0 hPa 0,0 l/m 13,4 km/h (3 Bft) W-SW 0,00 h 0,025 mm 0,0 UV-I 0 W/m 11,2 C 10,9 C 19,0 km/h (3 Bft) 98,66 %
03.05.2018 04:00 14,1 C 17,9 C 77 % 1006,2 hPa 0,0 l/m 14,8 km/h (3 Bft) W-SW 0,00 h 0,026 mm 0,0 UV-I 0 W/m 10,1 C 10,3 C 20,9 km/h (4 Bft) 95,64 %
03.05.2018 05:00 13,8 C 17,8 C 75 % 1006,6 hPa 0,0 l/m 8,8 km/h (2 Bft) W 0,10 h 0,050 mm 0,0 UV-I 9 W/m 9,6 C 12,2 C 12,5 km/h (3 Bft) 98,33 %
03.05.2018 06:00 13,0 C 17,8 C 79 % 1007,3 hPa 0,0 l/m 1,6 km/h (1 Bft) NO 0,40 h 0,026 mm 0,0 UV-I 58 W/m 9,5 C 13,0 C 2,3 km/h (1 Bft) 97,94 %
03.05.2018 07:00 13,7 C 17,8 C 80 % 1008,0 hPa 0,0 l/m 3,3 km/h (1 Bft) N-NO 0,80 h 0,025 mm 0,5 UV-I 202 W/m 10,2 C 13,7 C 4,7 km/h (1 Bft) 98,52 %
03.05.2018 08:00 15,4 C 17,8 C 72 % 1008,6 hPa 0,0 l/m 4,7 km/h (1 Bft) N 0,97 h 0,127 mm 0,8 UV-I 369 W/m 10,3 C 15,3 C 7,3 km/h (2 Bft) 96,16 %
03.05.2018 09:00 15,9 C 18,2 C 69 % 1009,1 hPa 0,0 l/m 4,5 km/h (1 Bft) N 1,00 h 0,203 mm 1,7 UV-I 526 W/m 10,2 C 15,8 C 6,6 km/h (2 Bft) 99,23 %
03.05.2018 10:00 17,1 C 18,3 C 67 % 1009,2 hPa 0,0 l/m 5,9 km/h (2 Bft) W-SW 1,00 h 0,000 mm 2,7 UV-I 667 W/m 10,9 C 16,6 C 9,4 km/h (2 Bft) 98,07 %
03.05.2018 11:00 18,5 C 18,3 C 64 % 1009,3 hPa 0,0 l/m 5,0 km/h (1 Bft) W-SW 1,00 h 0,381 mm 3,5 UV-I 709 W/m 11,6 C 18,3 C 7,7 km/h (2 Bft) 98,02 %
03.05.2018 12:00 20,1 C 18,8 C 61 % 1009,1 hPa 0,0 l/m 6,4 km/h (2 Bft) SW 1,00 h 0,432 mm 4,0 UV-I 768 W/m 12,3 C 19,7 C 10,1 km/h (2 Bft) 95,68 %
03.05.2018 13:00 21,3 C 19,1 C 56 % 1008,8 hPa 0,0 l/m 5,8 km/h (2 Bft) W-SW 1,00 h 0,483 mm 4,1 UV-I 786 W/m 12,3 C 21,0 C 8,6 km/h (2 Bft) 99,50 %
03.05.2018 14:00 22,4 C 19,4 C 56 % 1008,4 hPa 0,0 l/m 5,0 km/h (1 Bft) N-NO 1,00 h 0,508 mm 3,7 UV-I 743 W/m 13,1 C 22,3 C 7,8 km/h (2 Bft) 97,68 %
03.05.2018 15:00 22,9 C 19,9 C 54 % 1007,9 hPa 0,0 l/m 5,5 km/h (1 Bft) N-NO 0,98 h 0,482 mm 2,7 UV-I 601 W/m 13,0 C 22,8 C 8,3 km/h (2 Bft) 99,16 %
03.05.2018 16:00 23,1 C 20,0 C 53 % 1007,8 hPa 0,0 l/m 4,7 km/h (1 Bft) W 0,75 h 0,407 mm 1,7 UV-I 448 W/m 12,8 C 23,0 C 7,8 km/h (2 Bft) 95,89 %
03.05.2018 17:00 23,1 C 20,0 C 52 % 1007,9 hPa 0,0 l/m 6,6 km/h (2 Bft) W 0,98 h 0,305 mm 1,0 UV-I 386 W/m 12,8 C 22,8 C 10,3 km/h (2 Bft) 97,47 %
03.05.2018 18:00 19,8 C 20,0 C 67 % 1008,4 hPa 4,8 l/m 10,3 km/h (2 Bft) S-SW 0,35 h 0,279 mm 0,5 UV-I 132 W/m 13,0 C 18,4 C 15,5 km/h (3 Bft) 97,92 %
03.05.2018 19:00 15,5 C 20,0 C 89 % 1008,7 hPa 0,0 l/m 7,0 km/h (2 Bft) S-SW 0,00 h 0,127 mm 0,0 UV-I 39 W/m 13,8 C 14,8 C 9,9 km/h (2 Bft) 98,64 %
03.05.2018 20:00 14,7 C 20,0 C 90 % 1010,0 hPa 0,0 l/m 8,4 km/h (2 Bft) SW 0,00 h 0,025 mm 0,0 UV-I 7 W/m 13,1 C 13,6 C 11,9 km/h (2 Bft) 95,72 %
03.05.2018 21:00 14,2 C 20,0 C 91 % 1011,0 hPa 0,0 l/m 6,4 km/h (2 Bft) S-SW 0,00 h 0,026 mm 0,0 UV-I 0 W/m 12,8 C 13,9 C 8,4 km/h (2 Bft) 98,39 %
03.05.2018 22:00 13,8 C 19,7 C 93 % 1011,4 hPa 0,0 l/m 4,6 km/h (1 Bft) S-SW 0,00 h 0,000 mm 0,0 UV-I 0 W/m 12,7 C 13,8 C 6,5 km/h (2 Bft) 97,27 %
03.05.2018 23:00 13,3 C 19,4 C 94 % 1011,8 hPa 0,0 l/m 4,1 km/h (1 Bft) S 0,00 h 0,000 mm 0,0 UV-I 0 W/m 12,3 C 13,3 C 6,1 km/h (2 Bft) 97,66 %
04.05.2018 00:00 13,1 C 19,4 C 93 % 1012,6 hPa 0,0 l/m 7,3 km/h (2 Bft) NO 0,00 h 0,000 mm 0,0 UV-I 0 W/m 11,9 C 11,9 C 10,3 km/h (2 Bft) 96,19 %
04.05.2018 01:00 14,1 C 19,4 C 88 % 1012,8 hPa 0,0 l/m 8,0 km/h (2 Bft) O-NO 0,00 h 0,000 mm 0,0 UV-I 0 W/m 12,2 C 13,0 C 11,6 km/h (2 Bft) 98,92 %
04.05.2018 02:00 13,8 C 19,4 C 89 % 1012,8 hPa 0,0 l/m 8,5 km/h (2 Bft) NO 0,00 h 0,025 mm 0,0 UV-I 0 W/m 12,1 C 12,6 C 11,4 km/h (2 Bft) 97,42 %
04.05.2018 03:00 13,5 C 19,1 C 91 % 1013,0 hPa 0,0 l/m 5,4 km/h (1 Bft) NO 0,00 h 0,026 mm 0,0 UV-I 0 W/m 12,1 C 13,4 C 7,8 km/h (2 Bft) 98,17 %
04.05.2018 04:00 13,7 C 18,9 C 91 % 1013,1 hPa 0,0 l/m 4,2 km/h (1 Bft) O 0,00 h 0,000 mm 0,0 UV-I 0 W/m 12,3 C 13,6 C 6,2 km/h (2 Bft) 95,92 %
04.05.2018 05:00 13,4 C 18,9 C 91 % 1013,2 hPa 0,0 l/m 3,5 km/h (1 Bft) O 0,00 h 0,000 mm 0,0 UV-I 5 W/m 11,9 C 13,3 C 5,9 km/h (2 Bft) 99,21 %
04.05.2018 06:00 13,3 C 18,9 C 90 % 1013,9 hPa 0,0 l/m 8,1 km/h (2 Bft) O-NO 0,00 h 0,000 mm 0,0 UV-I 10 W/m 11,7 C 11,7 C 14,7 km/h (3 Bft) 98,98 %
04.05.2018 07:00 13,1 C 18,9 C 90 % 1014,4 hPa 0,0 l/m 13,6 km/h (3 Bft) NO 0,00 h 0,025 mm 0,0 UV-I 44 W/m 11,5 C 9,6 C 22,0 km/h (4 Bft) 97,73 %
04.05.2018 08:00 13,5 C 18,9 C 88 % 1014,7 hPa 0,0 l/m 12,6 km/h (3 Bft) NO 0,00 h 0,051 mm 0,0 UV-I 101 W/m 11,6 C 10,3 C 19,4 km/h (3 Bft) 98,47 %
04.05.2018 09:00 13,9 C 18,9 C 87 % 1015,0 hPa 0,0 l/m 11,0 km/h (2 Bft) NO 0,00 h 0,076 mm 0,7 UV-I 127 W/m 11,9 C 11,5 C 19,2 km/h (3 Bft) 98,46 %
04.05.2018 10:00 15,2 C 18,9 C 84 % 1015,1 hPa 0,0 l/m 14,3 km/h (3 Bft) NO 0,00 h 0,076 mm 1,3 UV-I 277 W/m 12,5 C 11,7 C 21,0 km/h (4 Bft) 99,23 %
04.05.2018 11:00 15,9 C 18,9 C 81 % 1015,3 hPa 0,0 l/m 15,6 km/h (3 Bft) O-NO 0,30 h 0,178 mm 2,1 UV-I 403 W/m 12,6 C 12,1 C 20,8 km/h (4 Bft) 98,14 %
04.05.2018 12:00 16,3 C 18,9 C 80 % 1015,4 hPa 0,0 l/m 14,4 km/h (3 Bft) O-NO 0,08 h 0,254 mm 1,7 UV-I 300 W/m 12,8 C 13,1 C 19,3 km/h (3 Bft) 96,08 %
04.05.2018 13:00 16,9 C 18,9 C 78 % 1015,6 hPa 0,0 l/m 16,1 km/h (3 Bft) O-NO 0,23 h 0,203 mm 2,3 UV-I 398 W/m 13,1 C 13,3 C 21,0 km/h (4 Bft) 98,68 %
04.05.2018 14:00 17,1 C 18,9 C 77 % 1015,7 hPa 0,0 l/m 14,0 km/h (3 Bft) O-NO 0,32 h 0,254 mm 2,1 UV-I 389 W/m 13,1 C 14,1 C 18,5 km/h (3 Bft) 98,45 %
04.05.2018 15:00 18,0 C 18,9 C 74 % 1015,4 hPa 0,0 l/m 12,1 km/h (2 Bft) O 0,85 h 0,254 mm 2,2 UV-I 469 W/m 13,3 C 15,7 C 16,5 km/h (3 Bft) 98,62 %
04.05.2018 16:00 18,5 C 19,4 C 73 % 1015,1 hPa 0,0 l/m 7,9 km/h (2 Bft) O 0,58 h 0,305 mm 1,4 UV-I 366 W/m 13,5 C 17,7 C 11,8 km/h (2 Bft) 97,15 %
04.05.2018 17:00 18,4 C 19,4 C 74 % 1015,1 hPa 0,0 l/m 6,7 km/h (2 Bft) SO 0,40 h 0,229 mm 0,7 UV-I 227 W/m 13,6 C 17,8 C 10,0 km/h (2 Bft) 96,32 %
04.05.2018 18:00 18,4 C 19,4 C 74 % 1015,1 hPa 0,0 l/m 4,8 km/h (1 Bft) S-SO 0,75 h 0,152 mm 0,5 UV-I 174 W/m 13,7 C 18,3 C 6,9 km/h (2 Bft) 98,83 %
04.05.2018 19:00 17,7 C 19,4 C 77 % 1015,2 hPa 0,0 l/m 3,1 km/h (1 Bft) S-SO 0,93 h 0,127 mm 0,0 UV-I 70 W/m 13,6 C 17,7 C 4,8 km/h (1 Bft) 98,28 %
04.05.2018 20:00 16,0 C 19,4 C 85 % 1015,6 hPa 0,0 l/m 1,7 km/h (1 Bft) S-SO 0,18 h 0,051 mm 0,0 UV-I 12 W/m 13,5 C 16,0 C 2,3 km/h (1 Bft) 98,42 %
04.05.2018 21:00 15,7 C 18,9 C 88 % 1016,3 hPa 0,0 l/m 1,0 km/h (0 Bft) S-SO 0,00 h 0,000 mm 0,0 UV-I 0 W/m 13,7 C 15,7 C 1,5 km/h (1 Bft) 96,15 %
04.05.2018 22:00 15,8 C 18,9 C 87 % 1016,6 hPa 0,0 l/m 3,1 km/h (1 Bft) O-SO 0,00 h 0,000 mm 0,0 UV-I 0 W/m 13,6 C 15,8 C 4,3 km/h (1 Bft) 98,46 %
04.05.2018 23:00 15,8 C 18,9 C 87 % 1016,9 hPa 0,0 l/m 4,4 km/h (1 Bft) NO 0,00 h 0,000 mm 0,0 UV-I 0 W/m 13,7 C 15,7 C 5,9 km/h (2 Bft) 98,11 %
05.05.2018 00:00 15,8 C 18,9 C 87 % 1017,2 hPa 0,0 l/m 3,3 km/h (1 Bft) O-NO 0,00 h 0,000 mm 0,0 UV-I 0 W/m 13,7 C 15,8 C 4,9 km/h (1 Bft) 98,69 %
05.05.2018 01:00 15,8 C 18,9 C 86 % 1017,5 hPa 0,0 l/m 7,5 km/h (2 Bft) O-NO 0,00 h 0,000 mm 0,0 UV-I 0 W/m 13,5 C 15,1 C 11,3 km/h (2 Bft) 96,06 %
05.05.2018 02:00 15,6 C 18,9 C 83 % 1017,7 hPa 0,0 l/m 12,5 km/h (3 Bft) O 0,00 h 0,025 mm 0,0 UV-I 0 W/m 12,8 C 12,8 C 16,9 km/h (3 Bft) 98,70 %
05.05.2018 03:00 15,2 C 18,9 C 83 % 1018,0 hPa 0,0 l/m 7,9 km/h (2 Bft) O 0,00 h 0,026 mm 0,0 UV-I 0 W/m 12,4 C 14,3 C 11,6 km/h (2 Bft) 98,09 %
05.05.2018 04:00 14,9 C 18,9 C 83 % 1018,0 hPa 0,0 l/m 10,7 km/h (2 Bft) O-NO 0,00 h 0,025 mm 0,0 UV-I 0 W/m 12,1 C 12,8 C 15,3 km/h (3 Bft) 98,25 %
05.05.2018 05:00 14,5 C 18,3 C 85 % 1017,9 hPa 0,0 l/m 10,1 km/h (2 Bft) NO 0,00 h 0,026 mm 0,0 UV-I 5 W/m 12,0 C 12,5 C 14,6 km/h (3 Bft) 95,89 %
05.05.2018 06:00 14,4 C 18,3 C 86 % 1018,4 hPa 0,0 l/m 10,6 km/h (2 Bft) O-NO 0,00 h 0,025 mm 0,0 UV-I 22 W/m 12,1 C 12,2 C 14,9 km/h (3 Bft) 98,45 %
05.05.2018 07:00 14,6 C 18,3 C 86 % 1018,6 hPa 0,0 l/m 12,2 km/h (2 Bft) O-NO 0,00 h 0,025 mm 0,0 UV-I 77 W/m 12,2 C 11,8 C 16,5 km/h (3 Bft) 98,38 %
05.05.2018 08:00 14,7 C 18,3 C 83 % 1018,8 hPa 0,0 l/m 17,1 km/h (3 Bft) O 0,00 h 0,051 mm 0,0 UV-I 107 W/m 11,8 C 10,3 C 22,1 km/h (4 Bft) 98,75 %
05.05.2018 09:00 14,8 C 18,3 C 83 % 1018,9 hPa 0,0 l/m 12,4 km/h (3 Bft) O 0,00 h 0,102 mm 0,5 UV-I 110 W/m 11,8 C 12,0 C 17,1 km/h (3 Bft) 95,78 %
05.05.2018 10:00 14,4 C 18,3 C 87 % 1019,4 hPa 0,0 l/m 10,8 km/h (2 Bft) O 0,00 h 0,076 mm 0,6 UV-I 119 W/m 12,2 C 12,2 C 14,7 km/h (3 Bft) 98,52 %
05.05.2018 11:00 15,5 C 18,3 C 84 % 1019,7 hPa 0,0 l/m 15,9 km/h (3 Bft) O 0,63 h 0,076 mm 2,4 UV-I 480 W/m 12,7 C 11,7 C 21,1 km/h (4 Bft) 97,93 %
05.05.2018 12:00 16,0 C 18,3 C 80 % 1019,9 hPa 0,0 l/m 15,2 km/h (3 Bft) O-NO 0,05 h 0,280 mm 1,7 UV-I 314 W/m 12,6 C 12,4 C 20,4 km/h (4 Bft) 98,64 %
05.05.2018 13:00 15,8 C 18,3 C 80 % 1020,0 hPa 0,0 l/m 12,9 km/h (3 Bft) O-NO 0,00 h 0,203 mm 0,9 UV-I 170 W/m 12,3 C 12,9 C 17,8 km/h (3 Bft) 95,57 %
05.05.2018 14:00 15,6 C 18,3 C 82 % 1020,0 hPa 0,0 l/m 12,3 km/h (3 Bft) O 0,00 h 0,127 mm 0,8 UV-I 162 W/m 12,6 C 12,8 C 16,7 km/h (3 Bft) 97,41 %
05.05.2018 15:00 15,3 C 18,3 C 86 % 1020,1 hPa 0,2 l/m 9,4 km/h (2 Bft) O 0,00 h 0,101 mm 1,0 UV-I 217 W/m 13,0 C 13,7 C 13,0 km/h (3 Bft) 98,00 %
05.05.2018 16:00 16,1 C 18,3 C 83 % 1019,8 hPa 0,0 l/m 8,5 km/h (2 Bft) O 0,35 h 0,127 mm 1,1 UV-I 294 W/m 13,3 C 15,1 C 11,9 km/h (2 Bft) 98,77 %
05.05.2018 17:00 17,3 C 18,3 C 79 % 1019,6 hPa 0,0 l/m 7,7 km/h (2 Bft) O-NO 0,68 h 0,178 mm 0,8 UV-I 268 W/m 13,6 C 16,6 C 10,6 km/h (2 Bft) 97,27 %
05.05.2018 18:00 17,2 C 18,3 C 80 % 1019,5 hPa 0,0 l/m 5,6 km/h (1 Bft) NO 0,38 h 0,178 mm 0,5 UV-I 154 W/m 13,8 C 17,0 C 7,6 km/h (2 Bft) 96,84 %
05.05.2018 19:00 15,9 C 18,3 C 86 % 1019,4 hPa 0,0 l/m 2,0 km/h (1 Bft) N-NO 0,00 h 0,102 mm 0,0 UV-I 40 W/m 13,6 C 15,9 C 3,0 km/h (1 Bft) 97,46 %
05.05.2018 20:00 14,2 C 18,3 C 90 % 1019,5 hPa 0,0 l/m 0,5 km/h (0 Bft) O-SO 0,05 h 0,025 mm 0,0 UV-I 9 W/m 12,7 C 14,2 C 0,8 km/h (0 Bft) 99,20 %
05.05.2018 21:00 14,2 C 18,3 C 91 % 1019,8 hPa 0,0 l/m 2,9 km/h (1 Bft) O-SO 0,00 h 0,000 mm 0,0 UV-I 0 W/m 12,6 C 14,2 C 3,9 km/h (1 Bft) 98,01 %
05.05.2018 22:00 13,7 C 18,3 C 92 % 1019,9 hPa 0,0 l/m 3,7 km/h (1 Bft) O-NO 0,00 h 0,000 mm 0,0 UV-I 0 W/m 12,5 C 13,7 C 4,9 km/h (1 Bft) 97,23 %
05.05.2018 23:00 13,0 C 18,3 C 94 % 1020,0 hPa 0,0 l/m 2,3 km/h (1 Bft) O-NO 0,00 h 0,000 mm 0,0 UV-I 0 W/m 12,1 C 13,0 C 3,5 km/h (1 Bft) 97,80 %
06.05.2018 00:00 12,4 C 18,2 C 95 % 1020,1 hPa 0,0 l/m 2,8 km/h (1 Bft) O-SO 0,00 h 0,000 mm 0,0 UV-I 0 W/m 11,6 C 12,4 C 4,4 km/h (1 Bft) 99,36 %
06.05.2018 01:00 11,9 C 17,8 C 95 % 1020,4 hPa 0,0 l/m 1,3 km/h (1 Bft) O 0,00 h 0,000 mm 0,0 UV-I 0 W/m 11,2 C 11,9 C 2,4 km/h (1 Bft) 96,81 %
06.05.2018 02:00 11,9 C 17,8 C 96 % 1020,4 hPa 0,0 l/m 2,9 km/h (1 Bft) O-NO 0,00 h 0,000 mm 0,0 UV-I 0 W/m 11,3 C 11,9 C 4,6 km/h (1 Bft) 97,10 %
06.05.2018 03:00 11,5 C 17,8 C 94 % 1020,5 hPa 0,0 l/m 5,0 km/h (1 Bft) O-NO 0,00 h 0,000 mm 0,0 UV-I 0 W/m 10,6 C 11,4 C 7,4 km/h (2 Bft) 97,65 %
06.05.2018 04:00 10,5 C 17,8 C 90 % 1020,4 hPa 0,0 l/m 3,8 km/h (1 Bft) O 0,00 h 0,000 mm 0,0 UV-I 0 W/m 9,0 C 10,5 C 5,7 km/h (1 Bft) 98,61 %
06.05.2018 05:00 9,9 C 17,7 C 85 % 1020,6 hPa 0,0 l/m 5,3 km/h (1 Bft) O-NO 0,18 h 0,000 mm 0,0 UV-I 12 W/m 7,5 C 9,9 C 7,3 km/h (2 Bft) 95,72 %
06.05.2018 06:00 10,1 C 17,2 C 81 % 1021,0 hPa 0,0 l/m 7,0 km/h (2 Bft) O-NO 1,00 h 0,025 mm 0,0 UV-I 85 W/m 7,0 C 9,5 C 10,2 km/h (2 Bft) 98,97 %
06.05.2018 07:00 11,5 C 17,2 C 72 % 1021,3 hPa 0,0 l/m 8,6 km/h (2 Bft) O-NO 1,00 h 0,051 mm 0,5 UV-I 238 W/m 6,6 C 10,1 C 12,3 km/h (3 Bft) 98,69 %
06.05.2018 08:00 13,3 C 17,2 C 60 % 1021,4 hPa 0,0 l/m 13,4 km/h (3 Bft) O-NO 1,00 h 0,153 mm 0,9 UV-I 413 W/m 5,8 C 9,9 C 18,4 km/h (3 Bft) 97,22 %
06.05.2018 09:00 14,9 C 17,6 C 54 % 1021,3 hPa 0,0 l/m 16,9 km/h (3 Bft) O-NO 1,00 h 0,279 mm 1,7 UV-I 575 W/m 5,6 C 10,5 C 22,7 km/h (4 Bft) 97,63 %
06.05.2018 10:00 16,2 C 17,8 C 50 % 1021,3 hPa 0,0 l/m 16,8 km/h (3 Bft) O-NO 1,00 h 0,406 mm 2,7 UV-I 706 W/m 5,7 C 12,2 C 22,2 km/h (4 Bft) 99,30 %
06.05.2018 11:00 17,7 C 17,8 C 47 % 1021,0 hPa 0,0 l/m 15,6 km/h (3 Bft) O-NO 1,00 h 0,483 mm 3,6 UV-I 800 W/m 6,2 C 14,4 C 20,9 km/h (4 Bft) 98,19 %
06.05.2018 12:00 18,9 C 18,2 C 41 % 1020,7 hPa 0,0 l/m 16,4 km/h (3 Bft) O-NO 1,00 h 0,559 mm 4,2 UV-I 848 W/m 5,5 C 15,6 C 21,5 km/h (4 Bft) 97,34 %
06.05.2018 13:00 19,9 C 18,4 C 40 % 1020,1 hPa 0,0 l/m 15,3 km/h (3 Bft) O-NO 1,00 h 0,609 mm 4,3 UV-I 847 W/m 5,8 C 17,1 C 21,1 km/h (4 Bft) 96,05 %
06.05.2018 14:00 20,9 C 18,9 C 36 % 1019,7 hPa 0,0 l/m 14,0 km/h (3 Bft) O 1,00 h 0,610 mm 3,8 UV-I 797 W/m 5,3 C 18,6 C 18,5 km/h (3 Bft) 98,14 %
06.05.2018 15:00 21,5 C 18,9 C 38 % 1019,1 hPa 0,0 l/m 12,4 km/h (3 Bft) O-NO 1,00 h 0,584 mm 2,9 UV-I 699 W/m 6,4 C 19,7 C 17,7 km/h (3 Bft) 98,76 %
06.05.2018 16:00 21,9 C 19,3 C 38 % 1018,5 hPa 0,0 l/m 11,4 km/h (2 Bft) NO 1,00 h 0,534 mm 1,9 UV-I 563 W/m 7,0 C 20,5 C 15,9 km/h (3 Bft) 97,56 %
06.05.2018 17:00 22,0 C 19,4 C 35 % 1018,1 hPa 0,0 l/m 10,2 km/h (2 Bft) O 1,00 h 0,431 mm 1,0 UV-I 402 W/m 5,9 C 20,8 C 14,2 km/h (3 Bft) 98,51 %
06.05.2018 18:00 21,5 C 19,4 C 36 % 1017,8 hPa 0,0 l/m 10,1 km/h (2 Bft) O 1,00 h 0,331 mm 0,6 UV-I 232 W/m 6,0 C 20,4 C 14,0 km/h (3 Bft) 95,65 %
06.05.2018 19:00 20,2 C 19,4 C 41 % 1017,8 hPa 0,0 l/m 7,0 km/h (2 Bft) O-SO 1,00 h 0,228 mm 0,0 UV-I 87 W/m 6,7 C 19,8 C 10,0 km/h (2 Bft) 98,52 %
06.05.2018 20:00 18,5 C 19,1 C 45 % 1018,1 hPa 0,0 l/m 5,0 km/h (1 Bft) O-SO 0,22 h 0,127 mm 0,0 UV-I 13 W/m 6,4 C 18,4 C 7,0 km/h (2 Bft) 97,65 %
06.05.2018 21:00 15,7 C 18,9 C 56 % 1018,6 hPa 0,0 l/m 4,2 km/h (1 Bft) O 0,00 h 0,051 mm 0,0 UV-I 0 W/m 6,8 C 15,6 C 6,0 km/h (2 Bft) 98,76 %
06.05.2018 22:00 15,0 C 18,9 C 56 % 1019,2 hPa 0,0 l/m 6,2 km/h (2 Bft) O-NO 0,00 h 0,025 mm 0,0 UV-I 0 W/m 6,2 C 14,8 C 9,2 km/h (2 Bft) 95,82 %
06.05.2018 23:00 13,7 C 18,9 C 60 % 1019,5 hPa 0,0 l/m 5,3 km/h (1 Bft) O-NO 0,00 h 0,051 mm 0,0 UV-I 0 W/m 6,2 C 13,7 C 7,3 km/h (2 Bft) 98,32 %
Min-Datum _ 02.05.18 06.05.18 06.05.18 30.04.18 - 01.05.18 - - - - - 06.05.18 01.05.18 01.05.18 01.05.18
_ Min-Zeit 04:39 05:43 14:51 05:59 - 17:09 - - - - - 14:51 02:17 17:09 00:02
Minimum _ 8,7 C 17,2 C 32 % 998,3 hPa - 0,0 km/h (0 Bft) - - - - - 3,8 C 4,7 C 0,0 km/h (0 Bft) 5,88 %
Max-Datum _ 02.05.18 30.04.18 06.05.18 06.05.18 03.05.18 30.04.18 - 02.05.18 06.05.18 30.04.18 30.04.18 03.05.18 03.05.18 30.04.18 30.04.18
_ Max-Zeit 15:41 16:52 00:28 07:48 18:44 10:00 - 08:45 14:01 12:58 11:09 14:28 16:26 09:38 00:07
Maximum _ 24,0 C 20,6 C 96 % 1021,5 hPa 4,8 l/m 40,0 km/h
W (6 Bft)
- 0,08 h 0,610 mm 4,6 UV-I 1046 W/m 14,7 C 23,6 C 61,2 km/h
W (7 Bft)
100,00 %
Durchschnitt _ 16,0 C 18,8 C 69 % 1011,7 hPa #5,0 l/m 8,2 km/h (2 Bft) O-NO #58:36 h #25,350 mm 1,8 UV-I 311 W/m 9,9 C 14,8 C 11,7 km/h (2 Bft) 97,76 %